Year,Month,Day,Hour,Minute,Value (Times are PST for temperature in C)
2013,08,09,00,00,19.80
2013,08,09,00,01,19.70
2013,08,09,00,02,19.70
2013,08,09,00,03,19.60
2013,08,09,00,04,19.60
2013,08,09,00,05,19.60
2013,08,09,00,06,19.60
2013,08,09,00,07,19.60
2013,08,09,00,08,19.60
2013,08,09,00,09,19.60
2013,08,09,00,10,19.60
2013,08,09,00,11,19.60
2013,08,09,00,12,19.70
2013,08,09,00,13,19.70
2013,08,09,00,14,19.70
2013,08,09,00,15,19.70
2013,08,09,00,16,19.70
2013,08,09,00,17,19.70
2013,08,09,00,18,19.70
2013,08,09,00,19,19.70
2013,08,09,00,20,19.70
2013,08,09,00,21,19.70
2013,08,09,00,22,19.70
2013,08,09,00,23,19.70
2013,08,09,00,24,19.70
2013,08,09,00,25,19.70
2013,08,09,00,26,19.70
2013,08,09,00,27,19.70
2013,08,09,00,28,19.60
2013,08,09,00,29,19.60
2013,08,09,00,30,19.50
2013,08,09,00,31,19.40
2013,08,09,00,32,19.40
2013,08,09,00,33,19.30
2013,08,09,00,34,19.30
2013,08,09,00,35,19.30
2013,08,09,00,36,19.30
2013,08,09,00,37,19.30
2013,08,09,00,38,19.30
2013,08,09,00,39,19.30
2013,08,09,00,40,19.30
2013,08,09,00,41,19.30
2013,08,09,00,42,19.30
2013,08,09,00,43,19.30
2013,08,09,00,44,19.30
2013,08,09,00,45,19.30
2013,08,09,00,46,19.20
2013,08,09,00,47,19.20
2013,08,09,00,48,19.20
2013,08,09,00,49,19.20
2013,08,09,00,50,19.20
2013,08,09,00,51,19.20
2013,08,09,00,52,19.10
2013,08,09,00,53,19.10
2013,08,09,00,54,19.10
2013,08,09,00,55,19.10
2013,08,09,00,56,19.10
2013,08,09,00,57,19.10
2013,08,09,00,58,19.10
2013,08,09,00,59,19.10
2013,08,09,01,00,19.10
2013,08,09,01,01,19.10
2013,08,09,01,02,19.00
2013,08,09,01,03,19.00
2013,08,09,01,04,18.90
2013,08,09,01,05,18.90
2013,08,09,01,06,18.90
2013,08,09,01,07,18.80
2013,08,09,01,08,18.80
2013,08,09,01,09,18.70
2013,08,09,01,10,18.70
2013,08,09,01,11,18.70
2013,08,09,01,12,18.60
2013,08,09,01,13,18.60
2013,08,09,01,14,18.60
2013,08,09,01,15,18.60
2013,08,09,01,16,18.60
2013,08,09,01,17,18.60
2013,08,09,01,18,18.60
2013,08,09,01,19,18.60
2013,08,09,01,20,18.60
2013,08,09,01,21,18.50
2013,08,09,01,22,18.50
2013,08,09,01,23,18.50
2013,08,09,01,24,18.50
2013,08,09,01,25,18.50
2013,08,09,01,26,18.60
2013,08,09,01,27,18.60
2013,08,09,01,28,18.60
2013,08,09,01,29,18.60
2013,08,09,01,30,18.60
2013,08,09,01,31,18.60
2013,08,09,01,32,18.60
2013,08,09,01,33,18.60
2013,08,09,01,34,18.60
2013,08,09,01,35,18.60
2013,08,09,01,36,18.70
2013,08,09,01,37,18.60
2013,08,09,01,38,18.70
2013,08,09,01,39,18.70
2013,08,09,01,40,18.70
2013,08,09,01,41,18.70
2013,08,09,01,42,18.70
2013,08,09,01,43,18.70
2013,08,09,01,44,18.70
2013,08,09,01,45,18.70
2013,08,09,01,46,18.70
2013,08,09,01,47,18.70
2013,08,09,01,48,18.70
2013,08,09,01,49,18.60
2013,08,09,01,50,18.60
2013,08,09,01,51,18.60
2013,08,09,01,52,18.60
2013,08,09,01,53,18.60
2013,08,09,01,54,18.60
2013,08,09,01,55,18.60
2013,08,09,01,56,18.50
2013,08,09,01,57,18.50
2013,08,09,01,58,18.50
2013,08,09,01,59,18.40
2013,08,09,02,00,18.40
2013,08,09,02,01,18.40
2013,08,09,02,02,18.40
2013,08,09,02,03,18.40
2013,08,09,02,04,18.40
2013,08,09,02,05,18.30
2013,08,09,02,06,18.30
2013,08,09,02,07,18.30
2013,08,09,02,08,18.30
2013,08,09,02,09,18.30
2013,08,09,02,10,18.30
2013,08,09,02,11,18.20
2013,08,09,02,12,18.20
2013,08,09,02,13,18.20
2013,08,09,02,14,18.20
2013,08,09,02,15,18.20
2013,08,09,02,16,18.20
2013,08,09,02,17,18.20
2013,08,09,02,18,18.20
2013,08,09,02,19,18.20
2013,08,09,02,20,18.20
2013,08,09,02,21,18.20
2013,08,09,02,22,18.20
2013,08,09,02,23,18.20
2013,08,09,02,24,18.30
2013,08,09,02,25,18.30
2013,08,09,02,26,18.30
2013,08,09,02,27,18.20
2013,08,09,02,28,18.20
2013,08,09,02,29,18.30
2013,08,09,02,30,18.30
2013,08,09,02,31,18.30
2013,08,09,02,32,18.30
2013,08,09,02,33,18.30
2013,08,09,02,34,18.30
2013,08,09,02,35,18.30
2013,08,09,02,36,18.30
2013,08,09,02,37,18.30
2013,08,09,02,38,18.30
2013,08,09,02,39,18.30
2013,08,09,02,40,18.20
2013,08,09,02,41,18.20
2013,08,09,02,42,18.20
2013,08,09,02,43,18.20
2013,08,09,02,44,18.20
2013,08,09,02,45,18.20
2013,08,09,02,46,18.20
2013,08,09,02,47,18.20
2013,08,09,02,48,18.10
2013,08,09,02,49,18.10
2013,08,09,02,50,18.00
2013,08,09,02,51,18.00
2013,08,09,02,52,17.90
2013,08,09,02,53,17.90
2013,08,09,02,54,17.90
2013,08,09,02,55,17.80
2013,08,09,02,56,17.80
2013,08,09,02,57,17.80
2013,08,09,02,58,17.70
2013,08,09,02,59,17.70
2013,08,09,03,00,17.70
2013,08,09,03,01,17.60
2013,08,09,03,02,17.60
2013,08,09,03,03,17.60
2013,08,09,03,04,17.70
2013,08,09,03,05,17.70
2013,08,09,03,06,17.70
2013,08,09,03,07,17.70
2013,08,09,03,08,17.70
2013,08,09,03,09,17.70
2013,08,09,03,10,17.70
2013,08,09,03,11,17.70
2013,08,09,03,12,17.70
2013,08,09,03,13,17.70
2013,08,09,03,14,17.70
2013,08,09,03,15,17.70
2013,08,09,03,16,17.70
2013,08,09,03,17,17.70
2013,08,09,03,18,17.70
2013,08,09,03,19,17.70
2013,08,09,03,20,17.60
2013,08,09,03,21,17.60
2013,08,09,03,22,17.60
2013,08,09,03,23,17.70
2013,08,09,03,24,17.70
2013,08,09,03,25,17.80
2013,08,09,03,26,17.80
2013,08,09,03,27,17.80
2013,08,09,03,28,17.80
2013,08,09,03,29,17.80
2013,08,09,03,30,17.80
2013,08,09,03,31,17.80
2013,08,09,03,32,17.80
2013,08,09,03,33,17.80
2013,08,09,03,34,17.80
2013,08,09,03,35,17.80
2013,08,09,03,36,17.80
2013,08,09,03,37,17.70
2013,08,09,03,38,17.70
2013,08,09,03,39,17.60
2013,08,09,03,40,17.50
2013,08,09,03,41,17.50
2013,08,09,03,42,17.40
2013,08,09,03,43,17.40
2013,08,09,03,44,17.40
2013,08,09,03,45,17.40
2013,08,09,03,46,17.40
2013,08,09,03,47,17.40
2013,08,09,03,48,17.40
2013,08,09,03,49,17.40
2013,08,09,03,50,17.50
2013,08,09,03,51,17.50
2013,08,09,03,52,17.50
2013,08,09,03,53,17.50
2013,08,09,03,54,17.50
2013,08,09,03,55,17.50
2013,08,09,03,56,17.50
2013,08,09,03,57,17.40
2013,08,09,03,58,17.40
2013,08,09,03,59,17.40
2013,08,09,04,00,17.30
2013,08,09,04,01,17.20
2013,08,09,04,02,17.20
2013,08,09,04,03,17.10
2013,08,09,04,04,17.10
2013,08,09,04,05,17.00
2013,08,09,04,06,16.90
2013,08,09,04,07,16.90
2013,08,09,04,08,16.80
2013,08,09,04,09,16.80
2013,08,09,04,10,16.70
2013,08,09,04,11,16.70
2013,08,09,04,12,16.60
2013,08,09,04,13,16.60
2013,08,09,04,14,16.60
2013,08,09,04,15,16.60
2013,08,09,04,16,16.50
2013,08,09,04,17,16.60
2013,08,09,04,18,16.60
2013,08,09,04,19,16.60
2013,08,09,04,20,16.60
2013,08,09,04,21,16.60
2013,08,09,04,22,16.60
2013,08,09,04,23,16.60
2013,08,09,04,24,16.60
2013,08,09,04,25,16.60
2013,08,09,04,26,16.60
2013,08,09,04,27,16.60
2013,08,09,04,28,16.70
2013,08,09,04,29,16.70
2013,08,09,04,30,16.70
2013,08,09,04,31,16.70
2013,08,09,04,32,16.70
2013,08,09,04,33,16.80
2013,08,09,04,34,16.80
2013,08,09,04,35,16.80
2013,08,09,04,36,16.80
2013,08,09,04,37,16.80
2013,08,09,04,38,16.80
2013,08,09,04,39,16.80
2013,08,09,04,40,16.80
2013,08,09,04,41,16.80
2013,08,09,04,42,16.80
2013,08,09,04,43,16.70
2013,08,09,04,44,16.70
2013,08,09,04,45,16.70
2013,08,09,04,46,16.60
2013,08,09,04,47,16.60
2013,08,09,04,48,16.60
2013,08,09,04,49,16.60
2013,08,09,04,50,16.50
2013,08,09,04,51,16.50
2013,08,09,04,52,16.40
2013,08,09,04,53,16.40
2013,08,09,04,54,16.30
2013,08,09,04,55,16.30
2013,08,09,04,56,16.20
2013,08,09,04,57,16.10
2013,08,09,04,58,16.10
2013,08,09,04,59,16.00
2013,08,09,05,00,16.00
2013,08,09,05,01,16.00
2013,08,09,05,02,15.90
2013,08,09,05,03,15.90
2013,08,09,05,04,15.90
2013,08,09,05,05,15.90
2013,08,09,05,06,15.90
2013,08,09,05,07,15.90
2013,08,09,05,08,15.90
2013,08,09,05,09,16.00
2013,08,09,05,10,16.10
2013,08,09,05,11,16.10
2013,08,09,05,12,16.20
2013,08,09,05,13,16.30
2013,08,09,05,14,16.40
2013,08,09,05,15,16.50
2013,08,09,05,16,16.60
2013,08,09,05,17,16.70
2013,08,09,05,18,16.80
2013,08,09,05,19,16.80
2013,08,09,05,20,16.90
2013,08,09,05,21,16.90
2013,08,09,05,22,17.00
2013,08,09,05,23,17.10
2013,08,09,05,24,17.10
2013,08,09,05,25,17.10
2013,08,09,05,26,17.20
2013,08,09,05,27,17.20
2013,08,09,05,28,17.20
2013,08,09,05,29,17.20
2013,08,09,05,30,17.20
2013,08,09,05,31,17.10
2013,08,09,05,32,17.00
2013,08,09,05,33,17.00
2013,08,09,05,34,16.90
2013,08,09,05,35,16.80
2013,08,09,05,36,16.80
2013,08,09,05,37,16.70
2013,08,09,05,38,16.70
2013,08,09,05,39,16.60
2013,08,09,05,40,16.60
2013,08,09,05,41,16.60
2013,08,09,05,42,16.50
2013,08,09,05,43,16.50
2013,08,09,05,44,16.40
2013,08,09,05,45,16.40
2013,08,09,05,46,16.40
2013,08,09,05,47,16.40
2013,08,09,05,48,16.30
2013,08,09,05,49,16.30
2013,08,09,05,50,16.30
2013,08,09,05,51,16.30
2013,08,09,05,52,16.30
2013,08,09,05,53,16.30
2013,08,09,05,54,16.30
2013,08,09,05,55,16.30
2013,08,09,05,56,16.30
2013,08,09,05,57,16.30
2013,08,09,05,58,16.30
2013,08,09,05,59,16.30
2013,08,09,06,00,16.30
2013,08,09,06,01,16.20
2013,08,09,06,02,16.20
2013,08,09,06,03,16.20
2013,08,09,06,04,16.20
2013,08,09,06,05,16.10
2013,08,09,06,06,16.10
2013,08,09,06,07,16.10
2013,08,09,06,08,16.10
2013,08,09,06,09,16.10
2013,08,09,06,10,16.00
2013,08,09,06,11,16.00
2013,08,09,06,12,16.00
2013,08,09,06,13,16.00
2013,08,09,06,14,16.00
2013,08,09,06,15,15.90
2013,08,09,06,16,15.90
2013,08,09,06,17,15.90
2013,08,09,06,18,16.00
2013,08,09,06,19,16.00
2013,08,09,06,20,16.00
2013,08,09,06,21,16.00
2013,08,09,06,22,16.10
2013,08,09,06,23,16.10
2013,08,09,06,24,16.20
2013,08,09,06,25,16.30
2013,08,09,06,26,16.30
2013,08,09,06,27,16.30
2013,08,09,06,28,16.30
2013,08,09,06,29,16.30
2013,08,09,06,30,16.30
2013,08,09,06,31,16.30
2013,08,09,06,32,16.30
2013,08,09,06,33,16.30
2013,08,09,06,34,16.30
2013,08,09,06,35,16.30
2013,08,09,06,36,16.30
2013,08,09,06,37,16.30
2013,08,09,06,38,16.30
2013,08,09,06,39,16.30
2013,08,09,06,40,16.40
2013,08,09,06,41,16.40
2013,08,09,06,42,16.40
2013,08,09,06,43,16.40
2013,08,09,06,44,16.40
2013,08,09,06,45,16.40
2013,08,09,06,46,16.50
2013,08,09,06,47,16.50
2013,08,09,06,48,16.60
2013,08,09,06,49,16.60
2013,08,09,06,50,16.60
2013,08,09,06,51,16.70
2013,08,09,06,52,16.70
2013,08,09,06,53,16.70
2013,08,09,06,54,16.80
2013,08,09,06,55,16.90
2013,08,09,06,56,16.90
2013,08,09,06,57,17.00
2013,08,09,06,58,17.10
2013,08,09,06,59,17.20
2013,08,09,07,00,17.40
2013,08,09,07,01,17.50
2013,08,09,07,02,17.60
2013,08,09,07,03,17.70
2013,08,09,07,04,17.80
2013,08,09,07,05,17.90
2013,08,09,07,06,18.00
2013,08,09,07,07,18.10
2013,08,09,07,08,18.10
2013,08,09,07,09,18.20
2013,08,09,07,10,18.20
2013,08,09,07,11,18.30
2013,08,09,07,12,18.30
2013,08,09,07,13,18.30
2013,08,09,07,14,18.40
2013,08,09,07,15,18.40
2013,08,09,07,16,18.50
2013,08,09,07,17,18.60
2013,08,09,07,18,18.70
2013,08,09,07,19,18.70
2013,08,09,07,20,18.80
2013,08,09,07,21,18.90
2013,08,09,07,22,19.00
2013,08,09,07,23,19.00
2013,08,09,07,24,19.10
2013,08,09,07,25,19.20
2013,08,09,07,26,19.30
2013,08,09,07,27,19.30
2013,08,09,07,28,19.40
2013,08,09,07,29,19.40
2013,08,09,07,30,19.50
2013,08,09,07,31,19.50
2013,08,09,07,32,19.60
2013,08,09,07,33,19.60
2013,08,09,07,34,19.60
2013,08,09,07,35,19.60
2013,08,09,07,36,19.70
2013,08,09,07,37,19.70
2013,08,09,07,38,19.70
2013,08,09,07,39,19.70
2013,08,09,07,40,19.70
2013,08,09,07,41,19.80
2013,08,09,07,42,19.80
2013,08,09,07,43,19.80
2013,08,09,07,44,19.90
2013,08,09,07,45,19.90
2013,08,09,07,46,20.00
2013,08,09,07,47,20.00
2013,08,09,07,48,20.10
2013,08,09,07,49,20.10
2013,08,09,07,50,20.20
2013,08,09,07,51,20.20
2013,08,09,07,52,20.20
2013,08,09,07,53,20.20
2013,08,09,07,54,20.30
2013,08,09,07,55,20.30
2013,08,09,07,56,20.30
2013,08,09,07,57,20.30
2013,08,09,07,58,20.40
2013,08,09,07,59,20.40
2013,08,09,08,00,20.50
2013,08,09,08,01,20.50
2013,08,09,08,02,20.60
2013,08,09,08,03,20.60
2013,08,09,08,04,20.70
2013,08,09,08,05,20.70
2013,08,09,08,06,20.80
2013,08,09,08,07,20.90
2013,08,09,08,08,21.00
2013,08,09,08,09,21.00
2013,08,09,08,10,21.10
2013,08,09,08,11,21.20
2013,08,09,08,12,21.30
2013,08,09,08,13,21.30
2013,08,09,08,14,21.40
2013,08,09,08,15,21.50
2013,08,09,08,16,21.50
2013,08,09,08,17,21.60
2013,08,09,08,18,21.60
2013,08,09,08,19,21.70
2013,08,09,08,20,21.70
2013,08,09,08,21,21.70
2013,08,09,08,22,21.70
2013,08,09,08,23,21.70
2013,08,09,08,24,21.70
2013,08,09,08,25,21.70
2013,08,09,08,26,21.70
2013,08,09,08,27,21.80
2013,08,09,08,28,21.80
2013,08,09,08,29,21.80
2013,08,09,08,30,21.80
2013,08,09,08,31,21.80
2013,08,09,08,32,21.70
2013,08,09,08,33,21.70
2013,08,09,08,34,21.70
2013,08,09,08,35,21.80
2013,08,09,08,36,21.80
2013,08,09,08,37,21.80
2013,08,09,08,38,21.90
2013,08,09,08,39,21.90
2013,08,09,08,40,22.00
2013,08,09,08,41,22.00
2013,08,09,08,42,22.10
2013,08,09,08,43,22.20
2013,08,09,08,44,22.30
2013,08,09,08,45,22.30
2013,08,09,08,46,22.40
2013,08,09,08,47,22.40
2013,08,09,08,48,22.50
2013,08,09,08,49,22.60
2013,08,09,08,50,22.60
2013,08,09,08,51,22.60
2013,08,09,08,52,22.60
2013,08,09,08,53,22.60
2013,08,09,08,54,22.60
2013,08,09,08,55,22.60
2013,08,09,08,56,22.60
2013,08,09,08,57,22.60
2013,08,09,08,58,22.60
2013,08,09,08,59,22.60
2013,08,09,09,00,22.70
2013,08,09,09,01,22.70
2013,08,09,09,02,22.70
2013,08,09,09,03,22.70
2013,08,09,09,04,22.80
2013,08,09,09,05,22.80
2013,08,09,09,06,22.90
2013,08,09,09,07,22.90
2013,08,09,09,08,23.00
2013,08,09,09,09,23.00
2013,08,09,09,10,23.10
2013,08,09,09,11,23.10
2013,08,09,09,12,23.10
2013,08,09,09,13,22.90
2013,08,09,09,14,22.70
2013,08,09,09,15,22.70
2013,08,09,09,16,22.60
2013,08,09,09,17,22.40
2013,08,09,09,18,22.10
2013,08,09,09,19,21.80
2013,08,09,09,20,21.70
2013,08,09,09,21,21.60
2013,08,09,09,22,21.50
2013,08,09,09,23,21.50
2013,08,09,09,24,21.50
2013,08,09,09,25,21.50
2013,08,09,09,26,21.60
2013,08,09,09,27,21.70
2013,08,09,09,28,21.80
2013,08,09,09,29,21.80
2013,08,09,09,30,21.90
2013,08,09,09,31,21.80
2013,08,09,09,32,21.70
2013,08,09,09,33,21.70
2013,08,09,09,34,21.70
2013,08,09,09,35,21.80
2013,08,09,09,36,21.80
2013,08,09,09,37,21.90
2013,08,09,09,38,22.00
2013,08,09,09,39,22.10
2013,08,09,09,40,22.30
2013,08,09,09,41,22.50
2013,08,09,09,42,22.60
2013,08,09,09,43,22.70
2013,08,09,09,44,22.80
2013,08,09,09,45,22.80
2013,08,09,09,46,22.80
2013,08,09,09,47,22.90
2013,08,09,09,48,22.90
2013,08,09,09,49,22.90
2013,08,09,09,50,22.90
2013,08,09,09,51,22.90
2013,08,09,09,52,22.90
2013,08,09,09,53,22.90
2013,08,09,09,54,22.90
2013,08,09,09,55,22.90
2013,08,09,09,56,23.00
2013,08,09,09,57,23.10
2013,08,09,09,58,23.30
2013,08,09,09,59,23.40
2013,08,09,10,00,23.50
2013,08,09,10,01,23.50
2013,08,09,10,02,23.50
2013,08,09,10,03,23.60
2013,08,09,10,04,23.60
2013,08,09,10,05,23.70
2013,08,09,10,06,23.70
2013,08,09,10,07,23.80
2013,08,09,10,08,23.80
2013,08,09,10,09,23.80
2013,08,09,10,10,23.90
2013,08,09,10,11,23.90
2013,08,09,10,12,24.00
2013,08,09,10,13,24.10
2013,08,09,10,14,24.20
2013,08,09,10,15,24.20
2013,08,09,10,16,24.30
2013,08,09,10,17,24.30
2013,08,09,10,18,24.30
2013,08,09,10,19,24.30
2013,08,09,10,20,24.30
2013,08,09,10,21,24.30
2013,08,09,10,22,24.30
2013,08,09,10,23,24.30
2013,08,09,10,24,24.30
2013,08,09,10,25,24.30
2013,08,09,10,26,24.30
2013,08,09,10,27,24.30
2013,08,09,10,28,24.30
2013,08,09,10,29,24.30
2013,08,09,10,30,24.30
2013,08,09,10,31,24.40
2013,08,09,10,32,24.40
2013,08,09,10,33,24.50
2013,08,09,10,34,24.60
2013,08,09,10,35,24.60
2013,08,09,10,36,24.70
2013,08,09,10,37,24.70
2013,08,09,10,38,24.80
2013,08,09,10,39,24.80
2013,08,09,10,40,24.90
2013,08,09,10,41,24.90
2013,08,09,10,42,24.90
2013,08,09,10,43,24.90
2013,08,09,10,44,24.90
2013,08,09,10,45,25.00
2013,08,09,10,46,25.10
2013,08,09,10,47,25.10
2013,08,09,10,48,25.00
2013,08,09,10,49,24.90
2013,08,09,10,50,24.90
2013,08,09,10,51,24.80
2013,08,09,10,52,24.70
2013,08,09,10,53,24.70
2013,08,09,10,54,24.80
2013,08,09,10,55,24.80
2013,08,09,10,56,24.80
2013,08,09,10,57,24.70
2013,08,09,10,58,24.30
2013,08,09,10,59,24.00
2013,08,09,11,00,23.70
2013,08,09,11,01,23.50
2013,08,09,11,02,23.30
2013,08,09,11,03,23.10
2013,08,09,11,04,22.80
2013,08,09,11,05,22.60
2013,08,09,11,06,22.40
2013,08,09,11,07,22.20
2013,08,09,11,08,22.20
2013,08,09,11,09,22.20
2013,08,09,11,10,22.20
2013,08,09,11,11,22.40
2013,08,09,11,12,22.40
2013,08,09,11,13,22.40
2013,08,09,11,14,22.30
2013,08,09,11,15,22.30
2013,08,09,11,16,22.40
2013,08,09,11,17,22.30
2013,08,09,11,18,22.40
2013,08,09,11,19,22.50
2013,08,09,11,20,22.50
2013,08,09,11,21,22.50
2013,08,09,11,22,22.60
2013,08,09,11,23,22.50
2013,08,09,11,24,22.50
2013,08,09,11,25,22.50
2013,08,09,11,26,22.60
2013,08,09,11,27,22.60
2013,08,09,11,28,22.60
2013,08,09,11,29,22.60
2013,08,09,11,30,22.70
2013,08,09,11,31,22.70
2013,08,09,11,32,22.70
2013,08,09,11,33,22.70
2013,08,09,11,34,22.80
2013,08,09,11,35,22.80
2013,08,09,11,36,22.80
2013,08,09,11,37,22.80
2013,08,09,11,38,22.80
2013,08,09,11,39,22.70
2013,08,09,11,40,22.70
2013,08,09,11,41,22.70
2013,08,09,11,42,22.70
2013,08,09,11,43,22.70
2013,08,09,11,44,22.70
2013,08,09,11,45,22.90
2013,08,09,11,46,23.00
2013,08,09,11,47,23.10
2013,08,09,11,48,23.10
2013,08,09,11,49,23.10
2013,08,09,11,50,23.00
2013,08,09,11,51,23.00
2013,08,09,11,52,23.00
2013,08,09,11,53,22.90
2013,08,09,11,54,22.90
2013,08,09,11,55,22.80
2013,08,09,11,56,22.90
2013,08,09,11,57,23.00
2013,08,09,11,58,23.10
2013,08,09,11,59,23.20
2013,08,09,12,00,23.30
2013,08,09,12,01,23.40
2013,08,09,12,02,23.50
2013,08,09,12,03,23.40
2013,08,09,12,04,23.40
2013,08,09,12,05,23.30
2013,08,09,12,06,23.40
2013,08,09,12,07,23.40
2013,08,09,12,08,23.40
2013,08,09,12,09,23.50
2013,08,09,12,10,23.50
2013,08,09,12,11,23.40
2013,08,09,12,12,23.50
2013,08,09,12,13,23.50
2013,08,09,12,14,23.60
2013,08,09,12,15,23.60
2013,08,09,12,16,23.70
2013,08,09,12,17,23.80
2013,08,09,12,18,23.90
2013,08,09,12,19,24.00
2013,08,09,12,20,24.10
2013,08,09,12,21,24.30
2013,08,09,12,22,24.50
2013,08,09,12,23,24.70
2013,08,09,12,24,24.90
2013,08,09,12,25,24.90
2013,08,09,12,26,25.00
2013,08,09,12,27,24.90
2013,08,09,12,28,24.90
2013,08,09,12,29,24.80
2013,08,09,12,30,24.70
2013,08,09,12,31,24.70
2013,08,09,12,32,24.70
2013,08,09,12,33,24.70
2013,08,09,12,34,24.80
2013,08,09,12,35,24.70
2013,08,09,12,36,24.70
2013,08,09,12,37,24.60
2013,08,09,12,38,24.50
2013,08,09,12,39,24.40
2013,08,09,12,40,24.40
2013,08,09,12,41,24.50
2013,08,09,12,42,24.60
2013,08,09,12,43,24.60
2013,08,09,12,44,24.60
2013,08,09,12,45,24.70
2013,08,09,12,46,24.60
2013,08,09,12,47,24.50
2013,08,09,12,48,24.40
2013,08,09,12,49,24.30
2013,08,09,12,50,24.30
2013,08,09,12,51,24.10
2013,08,09,12,52,24.00
2013,08,09,12,53,23.90
2013,08,09,12,54,23.90
2013,08,09,12,55,24.10
2013,08,09,12,56,24.20
2013,08,09,12,57,24.40
2013,08,09,12,58,24.50
2013,08,09,12,59,24.60
2013,08,09,13,00,24.60
2013,08,09,13,01,24.50
2013,08,09,13,02,24.40
2013,08,09,13,03,24.40
2013,08,09,13,04,24.20
2013,08,09,13,05,24.20
2013,08,09,13,06,24.20
2013,08,09,13,07,24.30
2013,08,09,13,08,24.30
2013,08,09,13,09,24.30
2013,08,09,13,10,24.30
2013,08,09,13,11,24.40
2013,08,09,13,12,24.50
2013,08,09,13,13,24.50
2013,08,09,13,14,24.50
2013,08,09,13,15,24.50
2013,08,09,13,16,24.60
2013,08,09,13,17,24.70
2013,08,09,13,18,24.70
2013,08,09,13,19,24.70
2013,08,09,13,20,24.80
2013,08,09,13,21,24.80
2013,08,09,13,22,24.80
2013,08,09,13,23,24.90
2013,08,09,13,24,24.90
2013,08,09,13,25,24.90
2013,08,09,13,26,24.70
2013,08,09,13,27,24.70
2013,08,09,13,28,24.70
2013,08,09,13,29,24.70
2013,08,09,13,30,24.80
2013,08,09,13,31,24.90
2013,08,09,13,32,25.00
2013,08,09,13,33,25.00
2013,08,09,13,34,25.10
2013,08,09,13,35,25.10
2013,08,09,13,36,25.10
2013,08,09,13,37,25.10
2013,08,09,13,38,25.10
2013,08,09,13,39,25.20
2013,08,09,13,40,25.20
2013,08,09,13,41,25.40
2013,08,09,13,42,25.50
2013,08,09,13,43,25.40
2013,08,09,13,44,25.50
2013,08,09,13,45,25.50
2013,08,09,13,46,25.50
2013,08,09,13,47,25.50
2013,08,09,13,48,25.40
2013,08,09,13,49,25.50
2013,08,09,13,50,25.50
2013,08,09,13,51,25.60
2013,08,09,13,52,25.80
2013,08,09,13,53,25.80
2013,08,09,13,54,25.80
2013,08,09,13,55,25.80
2013,08,09,13,56,25.80
2013,08,09,13,57,25.90
2013,08,09,13,58,25.90
2013,08,09,13,59,25.90
2013,08,09,14,00,25.90
2013,08,09,14,01,25.90
2013,08,09,14,02,25.90
2013,08,09,14,03,25.90
2013,08,09,14,04,25.90
2013,08,09,14,05,25.90
2013,08,09,14,06,26.00
2013,08,09,14,07,26.10
2013,08,09,14,08,26.20
2013,08,09,14,09,26.20
2013,08,09,14,10,26.30
2013,08,09,14,11,26.30
2013,08,09,14,12,26.30
2013,08,09,14,13,26.30
2013,08,09,14,14,26.20
2013,08,09,14,15,26.20
2013,08,09,14,16,26.20
2013,08,09,14,17,26.10
2013,08,09,14,18,26.00
2013,08,09,14,19,25.90
2013,08,09,14,20,25.90
2013,08,09,14,21,25.90
2013,08,09,14,22,25.90
2013,08,09,14,23,25.80
2013,08,09,14,24,25.60
2013,08,09,14,25,25.60
2013,08,09,14,26,25.60
2013,08,09,14,27,25.60
2013,08,09,14,28,25.60
2013,08,09,14,29,25.70
2013,08,09,14,30,25.70
2013,08,09,14,31,25.70
2013,08,09,14,32,25.70
2013,08,09,14,33,25.70
2013,08,09,14,34,25.70
2013,08,09,14,35,25.80
2013,08,09,14,36,25.80
2013,08,09,14,37,25.70
2013,08,09,14,38,25.70
2013,08,09,14,39,25.70
2013,08,09,14,40,25.60
2013,08,09,14,41,25.70
2013,08,09,14,42,25.80
2013,08,09,14,43,25.90
2013,08,09,14,44,26.10
2013,08,09,14,45,26.20
2013,08,09,14,46,26.30
2013,08,09,14,47,26.40
2013,08,09,14,48,26.50
2013,08,09,14,49,26.60
2013,08,09,14,50,26.60
2013,08,09,14,51,26.70
2013,08,09,14,52,26.70
2013,08,09,14,53,26.80
2013,08,09,14,54,26.90
2013,08,09,14,55,26.90
2013,08,09,14,56,26.90
2013,08,09,14,57,27.00
2013,08,09,14,58,27.00
2013,08,09,14,59,27.00
2013,08,09,15,00,26.90
2013,08,09,15,01,26.90
2013,08,09,15,02,27.00
2013,08,09,15,03,27.10
2013,08,09,15,04,27.20
2013,08,09,15,05,27.30
2013,08,09,15,06,27.30
2013,08,09,15,07,27.30
2013,08,09,15,08,27.30
2013,08,09,15,09,27.40
2013,08,09,15,10,27.40
2013,08,09,15,11,27.50
2013,08,09,15,12,27.60
2013,08,09,15,13,27.70
2013,08,09,15,14,27.80
2013,08,09,15,15,27.80
2013,08,09,15,16,27.90
2013,08,09,15,17,27.90
2013,08,09,15,18,28.00
2013,08,09,15,19,27.90
2013,08,09,15,20,27.80
2013,08,09,15,21,27.80
2013,08,09,15,22,27.80
2013,08,09,15,23,27.80
2013,08,09,15,24,27.80
2013,08,09,15,25,27.80
2013,08,09,15,26,27.90
2013,08,09,15,27,28.00
2013,08,09,15,28,28.10
2013,08,09,15,29,28.20
2013,08,09,15,30,28.20
2013,08,09,15,31,28.10
2013,08,09,15,32,28.10
2013,08,09,15,33,28.00
2013,08,09,15,34,27.90
2013,08,09,15,35,28.00
2013,08,09,15,36,28.00
2013,08,09,15,37,28.10
2013,08,09,15,38,28.20
2013,08,09,15,39,28.30
2013,08,09,15,40,28.30
2013,08,09,15,41,28.40
2013,08,09,15,42,28.40
2013,08,09,15,43,28.40
2013,08,09,15,44,28.40
2013,08,09,15,45,28.50
2013,08,09,15,46,28.60
2013,08,09,15,47,28.50
2013,08,09,15,48,28.50
2013,08,09,15,49,28.50
2013,08,09,15,50,28.60
2013,08,09,15,51,28.60
2013,08,09,15,52,28.70
2013,08,09,15,53,28.70
2013,08,09,15,54,28.70
2013,08,09,15,55,28.60
2013,08,09,15,56,28.60
2013,08,09,15,57,28.60
2013,08,09,15,58,28.60
2013,08,09,15,59,28.70
2013,08,09,16,00,28.70
2013,08,09,16,01,28.80
2013,08,09,16,02,28.80
2013,08,09,16,03,28.80
2013,08,09,16,04,28.80
2013,08,09,16,05,28.80
2013,08,09,16,06,28.80
2013,08,09,16,07,28.70
2013,08,09,16,08,28.70
2013,08,09,16,09,28.70
2013,08,09,16,10,28.70
2013,08,09,16,11,28.70
2013,08,09,16,12,28.80
2013,08,09,16,13,28.80
2013,08,09,16,14,28.80
2013,08,09,16,15,28.80
2013,08,09,16,16,28.80
2013,08,09,16,17,28.80
2013,08,09,16,18,28.80
2013,08,09,16,19,28.80
2013,08,09,16,20,28.80
2013,08,09,16,21,28.80
2013,08,09,16,22,28.80
2013,08,09,16,23,28.90
2013,08,09,16,24,28.90
2013,08,09,16,25,28.80
2013,08,09,16,26,28.70
2013,08,09,16,27,28.50
2013,08,09,16,28,28.40
2013,08,09,16,29,28.30
2013,08,09,16,30,28.20
2013,08,09,16,31,28.20
2013,08,09,16,32,28.20
2013,08,09,16,33,28.20
2013,08,09,16,34,28.20
2013,08,09,16,35,28.20
2013,08,09,16,36,28.30
2013,08,09,16,37,28.30
2013,08,09,16,38,28.30
2013,08,09,16,39,28.40
2013,08,09,16,40,28.50
2013,08,09,16,41,28.60
2013,08,09,16,42,28.70
2013,08,09,16,43,28.80
2013,08,09,16,44,28.90
2013,08,09,16,45,29.00
2013,08,09,16,46,29.10
2013,08,09,16,47,29.10
2013,08,09,16,48,29.10
2013,08,09,16,49,29.10
2013,08,09,16,50,29.10
2013,08,09,16,51,29.00
2013,08,09,16,52,29.00
2013,08,09,16,53,28.90
2013,08,09,16,54,28.90
2013,08,09,16,55,28.90
2013,08,09,16,56,28.90
2013,08,09,16,57,28.80
2013,08,09,16,58,28.80
2013,08,09,16,59,28.80
2013,08,09,17,00,28.80
2013,08,09,17,01,28.80
2013,08,09,17,02,28.80
2013,08,09,17,03,28.80
2013,08,09,17,04,28.80
2013,08,09,17,05,28.80
2013,08,09,17,06,28.80
2013,08,09,17,07,28.90
2013,08,09,17,08,28.90
2013,08,09,17,09,29.00
2013,08,09,17,10,29.00
2013,08,09,17,11,28.90
2013,08,09,17,12,28.90
2013,08,09,17,13,28.80
2013,08,09,17,14,28.80
2013,08,09,17,15,28.70
2013,08,09,17,16,28.60
2013,08,09,17,17,28.60
2013,08,09,17,18,28.60
2013,08,09,17,19,28.60